Weather in Hanmer Springs

New Zealand     42°31′22″S   172°49′45″E
temp.,
°C
wind,
m/s
gust,
m/s
humid.,
%
clouds,
%
prec.,
mm/h
press.,
hPa
HPBL,
m
7 may, fri
fri700:00+7se019170 0.0 103544
03:00+4nnw11930 0.0 103510
06:00+4n11920 0.0 103510
09:00+8nne117662 0.0 1035114
12:00+14sse1249100 0.0 1032888
15:00+16s024062 0.0 1030961
18:00+9nnw216770 0.0 103115
21:00+7nnw2272100 0.0 103239
8 may, sat
sat800:00+7nnw3375100 0.0 103252
03:00+7nw3374100 0.0 103053
06:00+8nw3372100 0.0 103069
09:00+10nnw3469100 0.0 1028138
12:00+14nw2552100 0.0 1025844
15:00+14nnw2553100 0.0 1023716
18:00+10nnw3377100 0.0 102283
21:00+9nnw3582100 0.0 1021168
9 may, sun
sun900:00+10nnw41784100 0.4 10191156
03:00+14nw51872100 0.1 10171445
06:00+14nnw41670100 0.2 10161440
09:00+13nnw41278100 0.1 10171052
12:00+14nnw51671100 0.2 10161600
15:00+14nnw41274100 0.5 10151195
18:00+12nw51488100 1.1 1016595
21:00+11nw349488 0.0 1017101
10 may, mon
mon1000:00+10nw3496100 0.0 1018104
03:00+10nw3494100 0.0 101973
06:00+9nw3491100 0.0 102069
09:00+11nw3484100 0.0 1020127
12:00+14nw2371100 0.0 1019399
15:00+15nw2370100 0.0 1017236
18:00+11nw3386100 0.0 101767
21:00+10nnw3486100 0.0 101785
11 may, tue
tue1100:00+11n249298 1.3 1013123
03:00+14nnw62274100 0.5 10081814
06:00+14nw13267816 4.9 10031735
09:00+14nw112572100 0.1 10031650
12:00+16nw92265100 0.2 10041644
15:00+15wnw6186514 0.1 10051724
18:00+13wnw118397 1.0 100815
21:00+7se339887 2.6 1014339